Change the Weather History Date:

Thursday, January 3, 2013

  Actual Average Record
Temperature  
Mean Temperature 46 °F -  
Max Temperature 49 °F 40 °F 53 °F (2014)
Min Temperature 42 °F 31 °F 12 °F (1997)
Degree Days  
Heating Degree Days 20    
Moisture  
Dew Point 46 °F    
Average Humidity 96    
Maximum Humidity 100    
Minimum Humidity 89    
Precipitation  
Precipitation 0.01 in - - ()
Sea Level Pressure  
Sea Level Pressure 30.49 in    
Wind  
Wind Speed 13 mph ()    
Max Wind Speed 17 mph    
Max Gust Speed -    
Visibility 1.2 miles    
Events Fog , Rain    
Averages and records for this station are not official NWS values.
T = Trace of Precipitation, MM = Missing Value Source: Averaged Metar Reports

Daily Weather History Graph

Daily Weather History Graph

Search for Another Location

Airport or City:

Trip Planner

Search our weather history database for the weather conditions in past years. The results will help you decide how hot, cold, wet, or windy it might be!

Date:

Astronomy

Jan. 03, 2013 Rise Set
Actual Time 8:42 AM CET 4:51 PM CET
Civil Twilight 8:03 AM CET 5:29 PM CET
Nautical Twilight 7:22 AM CET 6:11 PM CET
Astronomical Twilight 6:42 AM CET 6:51 PM CET
Moon 11:53 PM CET (1/3) 11:06 AM CET (1/3)
Length of Visible Light 9h 25m
Length of Day
8h 08m
Waning Gibbous, 68% of the Moon is Illuminated
Jan 3
Waning Gibbous
Jan 5
Last Quarter
Jan 11
New
Jan 19
First Quarter
Jan 27
Full

Hourly Weather History & Observations

Time (CET) Temp. Windchill Dew Point Humidity Pressure Visibility Wind Dir Wind Speed Gust Speed Precip Events Conditions
12:20 AM 42.8 °F 34.8 °F 41.0 °F 93% 30.36 in - SSW 17.3 mph - N/A   Mostly Cloudy
12:50 AM 42.8 °F 35.8 °F 41.0 °F 93% 30.36 in 3.1 mi SW 13.8 mph - N/A   Mostly Cloudy
1:00 AM 43 °F - 41 °F 89% 30.40 in 3 mi SW 13.4 mph - -   Mist
1:20 AM 42.8 °F 35.1 °F 41.0 °F 93% 30.36 in 2.2 mi SSW 16.1 mph - N/A Rain Light Rain
1:50 AM 42.8 °F 35.1 °F 41.0 °F 93% 30.36 in 1.9 mi SSW 16.1 mph - N/A Rain Light Rain
2:20 AM 42.8 °F 35.1 °F 41.0 °F 93% 30.39 in 1.6 mi SSW 16.1 mph - N/A Rain Light Rain
2:50 AM 42.8 °F 35.1 °F 41.0 °F 93% 30.39 in 1.7 mi SW 16.1 mph - N/A Rain Light Rain
3:20 AM 42.8 °F 35.1 °F 42.8 °F 100% 30.39 in 1.7 mi SSW 16.1 mph - N/A Rain Light Rain
3:50 AM 42.8 °F 35.4 °F 42.8 °F 100% 30.39 in 1.6 mi SSW 15.0 mph - N/A Rain Light Rain
4:00 AM 43 °F - 42 °F 96% 30.41 in 2 mi SSW 15.7 mph - - Rain Light Rain
4:20 AM 42.8 °F 35.4 °F 42.8 °F 100% 30.39 in 1.2 mi SW 15.0 mph - N/A Rain Light Rain
4:50 AM 44.6 °F 38.1 °F 42.8 °F 93% 30.39 in 1.1 mi SSW 13.8 mph - N/A Rain Light Rain
5:20 AM 44.6 °F 38.1 °F 42.8 °F 93% 30.39 in 0.9 mi SW 13.8 mph - N/A Rain Light Rain
5:50 AM 44.6 °F 38.1 °F 42.8 °F 93% 30.39 in 0.9 mi SW 13.8 mph - N/A Rain Light Rain
6:20 AM 44.6 °F 38.1 °F 42.8 °F 93% 30.42 in 0.9 mi SW 13.8 mph - N/A Rain Light Rain
6:50 AM 44.6 °F 38.1 °F 44.6 °F 100% 30.42 in 0.9 mi SW 13.8 mph - N/A Rain Light Rain
7:00 AM 45 °F - 44 °F 94% 30.44 in 1 mi SW 13.4 mph - - Rain Light Rain
7:20 AM 44.6 °F 38.1 °F 44.6 °F 100% 30.42 in 0.8 mi SW 13.8 mph - N/A Rain Light Rain
7:50 AM 44.6 °F 38.1 °F 44.6 °F 100% 30.45 in 0.8 mi SW 13.8 mph - N/A Rain Light Rain
8:20 AM 46.4 °F 40.4 °F 44.6 °F 93% 30.45 in 0.7 mi SW 13.8 mph - N/A Rain Light Rain
8:50 AM 46.4 °F 39.8 °F 44.6 °F 93% 30.45 in 0.6 mi SW 16.1 mph - N/A   Light Drizzle
9:20 AM 46.4 °F 39.8 °F 44.6 °F 93% 30.45 in 0.6 mi SW 16.1 mph - N/A   Mostly Cloudy
9:50 AM 46.4 °F 40.1 °F 46.4 °F 100% 30.48 in 0.6 mi SW 15.0 mph - N/A   Mostly Cloudy
10:00 AM 47 °F - 46 °F 94% 30.50 in 1 mi SW 15.7 mph - -   Mist
10:20 AM 46.4 °F 39.8 °F 46.4 °F 100% 30.48 in 0.6 mi SW 16.1 mph - N/A   Mostly Cloudy
10:50 AM 48.2 °F - 46.4 °F 93% 30.48 in 0.4 mi SW 16.1 mph - N/A Fog Fog
11:20 AM 48.2 °F - 46.4 °F 93% 30.51 in 0.4 mi SW 16.1 mph - N/A Fog Fog
11:50 AM 48.2 °F - 46.4 °F 93% 30.51 in 0.5 mi WSW 16.1 mph - N/A Fog Fog
12:20 PM 48.2 °F - 48.2 °F 100% 30.51 in 0.6 mi WSW 16.1 mph - N/A   Mostly Cloudy
12:50 PM 48.2 °F - 48.2 °F 100% 30.51 in 0.8 mi WSW 15.0 mph - N/A   Mostly Cloudy
1:00 PM 49 °F - 48 °F 93% 30.53 in 1 mi WSW 15.7 mph - -   Mist
1:20 PM 50.0 °F - 48.2 °F 94% 30.51 in 0.9 mi WSW 15.0 mph - N/A   Mostly Cloudy
1:50 PM 50.0 °F - 48.2 °F 94% 30.51 in 1.4 mi WSW 15.0 mph - N/A   Mostly Cloudy
2:20 PM 50.0 °F - 48.2 °F 94% 30.51 in 1.9 mi WSW 13.8 mph - N/A   Mostly Cloudy
2:50 PM 50.0 °F - 48.2 °F 94% 30.51 in 1.9 mi WSW 13.8 mph - N/A   Mostly Cloudy
3:20 PM 50.0 °F - 48.2 °F 94% 30.51 in 1.7 mi WSW 15.0 mph - N/A   Mostly Cloudy
3:50 PM 48.2 °F - 48.2 °F 100% 30.54 in 1.7 mi WSW 13.8 mph - N/A   Mostly Cloudy
4:00 PM 49 °F - 48 °F 94% 30.56 in 2 mi WSW 13.4 mph - -   Mist
4:20 PM 48.2 °F - 48.2 °F 100% 30.54 in 1.6 mi WSW 12.7 mph - N/A   Mostly Cloudy
4:50 PM 48.2 °F - 48.2 °F 100% 30.54 in 1.6 mi WSW 10.4 mph - N/A   Mostly Cloudy
5:20 PM 48.2 °F - 48.2 °F 100% 30.57 in 1.6 mi WSW 11.5 mph - N/A   Mostly Cloudy
5:50 PM 48.2 °F - 48.2 °F 100% 30.57 in 1.1 mi West 9.2 mph - N/A   Light Drizzle
6:20 PM 48.2 °F - 48.2 °F 100% 30.57 in 0.9 mi WSW 10.4 mph - N/A   Light Drizzle
6:50 PM 48.2 °F - 48.2 °F 100% 30.57 in 0.9 mi West 10.4 mph - N/A   Light Drizzle
7:00 PM 49 °F - 48 °F 93% 30.60 in 1 mi West 11.2 mph - - Rain Light Drizzle
7:20 PM 48.2 °F - 48.2 °F 100% 30.57 in 0.8 mi WSW 10.4 mph - N/A   Light Drizzle
7:50 PM 48.2 °F - 48.2 °F 100% 30.60 in 0.9 mi WSW 9.2 mph - N/A   Light Drizzle
8:20 PM 48.2 °F - 48.2 °F 100% 30.60 in 0.6 mi WSW 10.4 mph - N/A Fog Light Drizzle
8:50 PM 48.2 °F - 48.2 °F 100% 30.60 in 0.4 mi WSW 11.5 mph - N/A Fog Light Drizzle
9:20 PM 48.2 °F - 48.2 °F 100% 30.60 in 0.4 mi WSW 12.7 mph - N/A Fog Light Drizzle
9:50 PM 48.2 °F - 46.4 °F 93% 30.60 in 0.6 mi WSW 12.7 mph - N/A Fog Light Drizzle
10:00 PM 48 °F - 47 °F 95% 30.63 in 1 mi WSW 13.4 mph - - Rain Light Drizzle
10:20 PM 48.2 °F - 46.4 °F 93% 30.63 in 0.5 mi WSW 11.5 mph - N/A Fog Light Drizzle
10:50 PM 48.2 °F - 46.4 °F 93% 30.63 in 1.1 mi WSW 11.5 mph - N/A   Light Drizzle
11:20 PM 48.2 °F - 46.4 °F 93% 30.63 in 1.3 mi WSW 10.4 mph - N/A   Light Drizzle
11:50 PM 48.2 °F - 46.4 °F 93% 30.63 in 1.0 mi WSW 13.8 mph - N/A   Light Drizzle